Weather in Lapithos

Cyprus     35°20′20″N   33°10′46″E
temp.,
°C
wind,
m/s
gust,
m/s
humid.,
%
clouds,
%
prec.,
mm/h
press.,
hPa
HPBL,
m
11 may, tue
tue1100:00+18w33590 0.0 101048
03:00+18w23610 0.0 100939
06:00+17w22640 0.0 101044
09:00+23nw22470 0.0 1010484
12:00+26nnw33370 0.0 10101082
15:00+26nnw43370 0.0 1009962
18:00+24wnw44410 0.0 1009517
21:00+19w34655 0.0 100976
12 may, wed
wed1200:00+18w46715 0.0 1009114
03:00+17wsw22695 0.0 100949
06:00+17se11635 0.0 100916
09:00+23e22382 0.0 1010561
12:00+26ne33320 0.0 10091343
15:00+26n43380 0.0 10091160
18:00+23nw43500 0.0 1009503
21:00+19wnw34770 0.0 1010124
13 may, thu
thu1300:00+18wnw35840 0.0 1010150
03:00+17w2287100 0.0 101073
06:00+17sse118625 0.0 101035
09:00+22e22570 0.0 1012539
12:00+25nne33410 0.0 10121298
15:00+25nnw53500 0.0 1012815
18:00+23wnw55511 0.0 1012600
21:00+19w47810 0.0 1013232
14 may, fri
fri1400:00+18w45810 0.0 1013114
03:00+17w44810 0.0 101290
06:00+17w34830 0.0 101393
09:00+22w33490 0.0 1014504
12:00+26nnw43380 0.0 10141150
15:00+25wnw75440 0.0 1014816
18:00+22wnw77595 0.0 1013531
21:00+18w58785 0.0 1014244
15 may, sat
sat1500:00+18w47885 0.0 1014179
03:00+17w46812 0.0 1013150
06:00+17wnw34840 0.0 101394
09:00+22w22540 0.0 1013472
12:00+26nnw43410 0.0 1012859
15:00+26wnw87450 0.0 1012623
18:00+23wnw810510 0.0 1011431
21:00+19w711770 0.0 1011261